Theta_e
349 350 351 356 357 359 359 360 359 362 363 362 363 364 364 364 364 365 365 365 365 365 365 365 364 364 364 364 364 365 365 365 365 365 364 364 364 363 363 362 362 361 358 357 357 356 359 362 361 360 360 361 362 362 359 360 361 361 360 361 361 361 360 361 361 361 360 360 359 359 362 361 360 362 362 361 362 362 362 361 361 358 358 357 359
349 353 354 356 356 359 359 359 359 360 362 362 364 364 364 364 364 365 365 364 364 364 364 364 363 363 363 364 364 364 364 363 364 364 364 364 362 362 362 362 362 361 360 359 358 358 359 360 360 361 361 361 361 361 360 360 361 361 360 361 361 359 357 358 360 361 363 361 361 360 362 361 361 361 362 361 361 362 361 360 360 358 357 359 359
352 353 355 356 357 359 359 358 359 362 362 364 364 363 364 364 364 365 364 363 363 363 363 363 362 362 362 363 363 363 363 364 364 363 363 362 361 362 362 362 361 362 362 360 360 360 361 360 360 360 361 361 360 361 361 361 361 361 361 361 361 358 358 360 361 361 360 361 362 362 361 361 360 361 361 360 361 361 362 361 360 360 358 359 358
352 354 356 358 361 360 360 360 362 363 364 364 363 363 363 364 364 362 364 363 362 362 362 362 361 362 362 363 364 364 363 362 363 362 361 361 361 362 362 362 362 359 359 359 359 357 358 358 359 361 362 361 361 360 360 361 362 362 362 362 360 360 359 359 359 360 363 361 361 361 359 360 360 359 359 360 359 359 359 359 359 360 358 358 358
353 355 356 357 359 361 362 363 363 363 363 363 364 364 364 363 363 363 363 362 361 360 360 360 360 361 361 363 363 364 363 362 362 361 360 361 361 361 362 362 359 357 353 358 357 355 355 357 359 360 359 361 362 363 363 363 362 362 362 360 360 361 360 360 362 360 360 362 361 358 356 357 360 362 361 361 360 361 360 359 358 359 360 359 358
354 355 356 356 358 361 363 362 363 363 364 364 364 364 363 363 363 363 362 362 361 361 361 360 360 360 360 362 362 361 362 361 360 360 360 360 360 360 361 361 358 354 355 356 358 357 358 359 360 361 358 361 362 362 362 362 362 361 360 360 359 361 361 360 362 362 360 362 360 356 356 357 358 360 360 360 361 360 360 360 360 359 360 360 359
354 355 356 356 356 361 363 363 363 363 363 364 364 363 363 363 363 362 361 361 361 360 360 360 360 360 360 360 360 361 361 360 360 360 359 360 361 360 361 359 356 354 356 355 358 359 359 360 360 359 360 361 361 362 362 362 362 361 361 362 360 358 360 360 360 361 362 357 356 356 356 356 357 358 360 360 360 360 360 360 360 360 360 360 359
355 356 356 356 356 361 363 364 363 364 364 364 364 363 363 362 362 361 361 360 361 361 360 360 359 359 360 359 360 359 360 359 359 360 360 360 360 360 360 359 357 358 355 356 358 359 359 360 360 360 360 360 362 361 362 362 362 362 361 360 361 360 359 359 361 361 360 355 356 356 356 357 359 359 360 359 359 360 359 359 359 359 359 359 358
354 355 356 356 358 362 363 363 363 364 363 363 363 363 362 362 361 361 360 359 358 361 360 360 359 360 360 360 359 358 360 359 358 359 360 359 359 359 359 359 357 356 357 358 358 359 357 359 360 359 360 360 361 361 364 363 362 361 360 360 359 360 360 360 361 360 356 356 356 357 357 357 357 359 360 360 360 360 360 359 359 359 359 358 358
354 354 355 354 354 363 363 364 364 363 363 362 362 363 362 362 362 361 360 360 359 360 360 360 359 359 360 360 359 359 360 359 359 360 360 360 359 358 358 359 358 356 356 357 358 359 359 360 360 358 359 360 360 360 363 362 361 360 360 360 361 361 361 362 361 360 355 357 358 359 359 359 358 358 358 358 358 358 359 360 359 358 358 358 358
353 354 354 354 356 363 364 364 363 363 363 362 363 362 362 362 362 361 361 361 361 360 359 360 360 360 360 359 361 358 360 359 359 360 360 360 358 358 359 358 358 358 358 358 358 358 359 359 360 360 360 359 358 360 363 362 361 361 361 361 361 361 362 361 358 354 355 356 357 358 359 360 359 359 359 359 358 358 359 359 359 359 359 358 358
353 353 354 355 363 364 364 364 363 364 363 362 362 362 362 362 362 362 361 360 360 360 360 361 361 360 360 359 358 359 359 360 360 360 360 360 358 359 359 360 359 357 359 358 358 358 358 359 359 359 360 360 360 361 362 361 362 361 361 362 362 361 361 360 354 354 354 356 357 357 356 358 359 358 359 359 358 358 359 359 359 358 358 358 357
353 354 355 357 361 364 364 363 363 363 362 362 361 362 362 362 362 361 361 361 361 360 360 360 360 359 357 357 358 358 358 359 360 360 360 360 359 359 359 359 360 358 358 357 356 358 357 359 358 359 359 359 360 360 360 360 360 362 361 361 361 361 361 360 354 355 355 355 356 356 357 358 359 359 358 358 358 359 359 359 358 359 358 357 356
353 354 356 359 360 364 364 363 363 363 363 362 361 361 362 362 362 362 361 361 360 361 360 360 360 357 357 357 358 358 358 359 360 359 359 360 359 360 360 358 357 356 357 357 357 356 356 357 357 358 359 361 360 360 361 361 360 361 361 361 361 361 362 360 358 355 356 356 358 357 357 360 360 359 358 358 358 358 358 358 358 358 358 357 356
353 355 358 359 360 362 364 364 362 363 362 361 361 361 362 361 361 362 361 361 361 360 360 360 358 357 357 357 358 358 359 359 359 359 359 360 360 359 359 358 359 357 357 358 357 357 356 355 356 357 359 360 360 360 360 361 362 362 361 361 361 361 360 354 354 354 355 357 357 357 357 359 357 358 358 358 358 358 358 358 357 357 357 357 357
356 358 359 358 359 359 362 363 362 363 362 362 362 361 361 362 362 361 362 361 361 360 360 361 359 358 357 358 357 357 358 358 358 359 359 360 360 360 360 359 358 358 357 357 354 356 356 356 355 354 356 359 360 361 360 361 361 361 361 361 361 361 360 357 354 353 354 356 357 359 358 358 358 358 358 358 358 358 358 358 358 358 358 357 357
359 359 358 358 357 357 360 360 361 362 362 362 361 362 362 362 362 361 361 361 361 361 360 360 359 359 360 358 356 354 356 357 358 358 358 359 359 360 360 360 358 358 357 357 355 357 356 354 353 354 355 358 360 360 361 361 362 361 361 361 361 361 360 358 354 355 357 359 358 358 360 360 358 358 357 357 357 358 358 358 358 358 358 358 358
358 358 356 356 357 359 360 360 360 360 360 360 361 361 361 361 361 361 361 361 361 359 358 359 359 358 359 358 355 354 356 356 357 358 357 357 358 360 359 359 359 356 355 356 358 359 354 354 355 356 357 360 360 362 362 361 361 361 361 361 361 361 361 359 356 357 359 359 357 359 359 358 359 358 358 358 358 358 358 358 357 357 358 358 357
357 357 356 356 356 359 359 359 359 357 356 356 357 360 361 361 361 361 362 360 359 358 357 358 360 358 359 358 356 355 355 357 357 357 355 357 358 359 359 359 358 356 356 355 357 357 359 359 361 361 359 361 360 361 360 360 360 361 360 361 361 362 362 358 356 356 357 357 358 357 360 360 358 358 357 358 358 357 357 357 357 357 357 357 357
355 355 355 356 357 358 357 357 356 357 356 356 355 357 360 360 360 361 361 360 359 359 359 359 360 359 359 358 357 356 356 354 355 356 355 357 359 357 358 358 359 356 355 355 356 361 361 362 362 362 363 362 362 362 360 360 359 359 360 360 362 362 355 355 355 356 358 359 360 359 361 357 358 358 358 358 357 357 357 357 357 357 357 356 356
353 353 353 356 357 357 356 356 357 357 356 356 356 357 359 360 360 361 361 361 361 360 360 360 359 357 357 358 354 351 353 354 354 355 357 357 358 359 358 357 358 355 356 358 361 362 361 361 362 363 363 362 361 360 360 358 359 360 361 362 362 355 355 355 356 359 358 358 359 359 360 357 357 357 358 358 356 354 356 356 357 356 355 356 356
350 351 353 356 356 357 356 355 356 356 356 355 355 356 358 358 355 357 361 359 360 360 358 356 356 353 356 354 351 352 352 353 352 356 358 358 358 358 358 357 356 355 357 361 362 362 362 361 361 361 362 364 364 358 362 363 359 360 364 364 355 355 356 356 356 358 357 358 360 360 358 357 358 357 357 357 357 356 356 357 356 356 356 355 355
348 350 352 356 357 357 356 356 355 356 355 355 357 357 354 354 355 357 359 360 359 357 355 356 353 350 347 349 354 352 353 353 355 355 357 357 358 358 358 356 353 353 357 361 362 362 362 361 361 362 363 362 355 355 355 356 359 363 363 356 355 355 355 355 356 355 355 358 358 360 358 358 358 359 358 359 358 358 358 357 357 357 356 355 356
347 348 350 356 357 356 355 356 356 355 354 355 355 355 354 354 354 355 355 355 355 354 353 353 353 351 349 350 355 356 355 354 355 355 357 354 356 356 357 356 354 355 365 364 365 363 366 364 364 362 360 358 354 355 354 355 356 356 354 355 354 354 355 355 356 355 356 360 356 359 359 358 358 358 359 358 358 358 358 358 358 357 357 357 356
346 348 353 354 355 356 356 356 356 356 355 356 354 354 353 353 354 355 354 354 353 353 352 352 353 354 355 356 356 355 353 354 354 353 352 352 350 351 351 354 358 360 363 357 357 359 359 357 358 360 358 359 359 356 357 355 355 355 353 354 354 354 354 355 355 355 356 357 359 360 358 358 357 357 359 358 359 359 359 358 358 357 358 357 357
347 347 349 353 355 356 356 356 356 356 356 355 354 357 354 352 354 355 354 353 353 352 352 352 352 354 356 357 357 352 353 352 353 354 352 354 353 354 352 355 356 357 360 356 356 357 356 357 357 358 358 359 358 358 357 356 353 352 352 353 354 354 354 354 355 355 356 356 360 360 359 359 358 357 358 359 359 359 359 358 358 358 358 358 357
345 346 350 352 355 355 355 356 355 355 355 356 357 355 354 354 355 355 353 353 353 352 352 352 353 354 356 358 354 353 353 353 353 353 353 354 353 354 354 354 354 355 357 355 355 356 356 357 357 357 357 357 357 358 357 353 353 352 352 352 353 353 353 353 354 355 356 356 358 361 359 359 360 359 359 359 359 358 358 358 358 358 359 358 357
345 347 350 352 354 354 355 355 354 355 354 356 355 354 354 355 357 358 355 361 355 353 353 353 355 357 358 358 356 353 352 351 352 352 352 352 353 353 354 355 355 355 358 356 354 355 356 356 357 357 356 356 355 356 355 353 352 352 352 352 352 353 352 353 353 354 354 356 358 362 360 361 361 360 360 359 359 358 358 358 359 358 358 359 359
345 347 350 352 353 355 355 354 355 354 355 356 354 354 355 356 356 354 354 360 353 354 355 355 355 358 357 357 357 352 352 351 351 352 352 351 351 353 354 354 355 355 356 356 356 355 355 355 356 356 356 356 356 355 356 354 352 351 352 352 352 352 352 352 352 352 353 355 356 359 362 361 361 361 360 360 359 359 359 358 358 359 359 358 358
346 349 350 351 353 355 355 354 355 354 356 356 353 354 355 355 354 353 355 358 353 354 356 355 355 355 355 355 356 352 352 351 351 351 351 351 351 353 354 353 354 355 355 355 356 355 354 354 355 355 355 355 355 355 357 354 349 350 352 352 352 352 353 352 352 352 353 354 355 357 362 362 361 361 361 360 359 359 360 359 359 359 359 359 358
348 349 350 351 354 355 354 355 355 357 356 354 353 353 355 354 354 353 355 353 355 358 356 354 354 355 354 355 355 357 352 352 351 351 352 351 351 352 352 354 354 354 355 353 355 357 355 354 354 354 354 354 354 354 354 352 349 348 352 351 352 353 353 353 352 352 352 353 354 355 357 362 363 362 362 361 360 360 360 360 360 360 360 359 359
348 349 350 352 354 354 354 355 355 357 356 355 356 354 354 354 353 353 354 353 356 354 353 355 359 355 356 355 354 355 357 352 353 353 353 352 352 353 354 354 353 353 356 355 355 355 357 356 356 356 356 355 354 354 351 348 346 346 350 351 352 352 353 353 352 353 353 353 353 354 355 356 360 363 362 362 361 361 361 361 361 361 360 360 359
349 351 351 352 352 353 354 355 356 357 355 354 355 354 354 355 352 353 354 355 356 354 353 353 354 356 356 355 354 357 359 354 354 357 361 352 353 354 355 358 357 356 356 357 357 359 358 358 357 360 357 355 355 353 352 347 346 347 349 351 351 351 353 353 354 353 353 353 353 353 354 355 357 359 361 362 363 363 362 362 362 362 362 361 361
349 351 351 351 353 354 355 355 355 355 354 354 355 354 354 354 353 353 357 354 354 353 355 353 358 356 356 354 354 359 356 356 355 356 355 354 354 354 356 357 358 359 360 360 358 355 356 357 358 355 360 359 351 351 351 349 347 346 348 350 350 351 352 352 353 353 353 353 354 354 354 354 355 356 357 360 361 362 363 364 364 364 363 363 363
351 350 350 351 353 353 355 355 356 355 356 355 355 353 353 354 351 352 354 353 354 354 354 354 355 356 354 355 357 363 357 357 357 356 355 355 355 355 356 357 359 360 359 360 357 358 357 357 359 354 353 353 352 359 350 349 347 346 346 349 348 349 351 351 353 352 353 353 353 353 354 354 355 355 356 357 358 358 359 362 363 364 364 364 364
350 350 351 352 352 353 356 355 356 354 355 354 353 353 353 352 350 355 353 354 355 354 354 355 356 356 357 356 360 363 358 358 358 356 355 355 355 355 355 358 360 359 357 358 361 359 357 356 358 356 352 350 353 351 352 350 349 348 348 348 348 351 349 350 351 351 352 353 353 353 353 354 354 354 358 357 357 356 358 360 362 362 363 364 365
351 350 351 351 351 353 356 354 354 353 354 354 352 352 351 350 350 354 352 354 353 354 355 357 357 356 356 358 360 364 356 357 357 356 356 355 355 355 357 357 360 357 357 356 357 358 356 356 356 359 354 353 351 351 351 353 352 351 350 347 345 350 349 350 349 350 350 351 351 351 351 353 354 359 359 358 358 358 356 357 359 360 363 363 363
351 351 351 351 351 353 354 354 354 354 353 353 351 350 350 350 351 352 356 353 353 356 358 358 356 356 357 359 360 363 358 357 356 356 355 357 355 356 356 358 359 357 356 356 356 357 356 354 356 356 358 354 354 353 353 353 351 347 350 348 351 351 350 349 349 354 352 350 351 351 351 351 352 352 353 354 354 356 356 356 356 357 358 359 360
351 351 351 351 351 352 354 356 353 353 353 352 351 350 350 350 351 352 353 353 355 357 358 356 356 356 358 360 361 361 361 357 356 358 359 360 356 357 358 359 359 356 355 355 354 356 356 353 354 357 356 357 358 356 355 357 347 349 351 350 353 354 353 349 351 349 351 350 349 352 350 353 352 353 354 354 354 356 356 357 356 356 355 355 357
350 351 351 351 350 352 352 354 352 353 352 351 351 348 349 350 349 351 351 354 354 357 357 357 357 357 360 362 360 360 361 359 357 358 360 357 356 357 359 359 358 355 355 355 355 356 354 355 355 360 356 354 356 352 351 351 348 344 351 349 346 347 349 352 354 350 351 351 350 351 350 353 353 354 353 355 356 356 358 358 359 358 356 356 356
350 350 350 349 350 351 350 351 351 351 351 349 348 347 346 347 349 349 349 351 353 356 356 356 357 358 361 361 361 361 360 361 360 358 358 363 356 357 358 359 358 358 356 354 353 358 360 357 355 357 356 352 352 353 350 345 345 345 344 343 344 346 352 358 354 352 351 353 352 351 351 352 352 352 355 355 356 357 358 359 358 358 357 357 357
347 349 348 348 349 350 349 350 350 351 351 350 349 348 348 348 348 349 350 352 355 355 354 356 357 360 361 361 361 360 359 361 361 359 360 357 355 357 358 358 356 354 357 356 360 363 357 356 356 356 353 353 351 353 349 345 341 338 339 340 342 342 347 351 349 348 348 348 349 351 351 350 350 351 352 354 355 356 356 357 358 358 359 358 358
347 348 348 348 348 348 349 350 349 350 351 351 350 348 350 351 351 351 353 353 357 358 357 358 360 360 360 360 361 359 359 360 361 362 358 357 356 356 357 355 355 361 358 354 355 356 357 357 357 355 352 350 353 356 351 345 344 343 341 341 334 334 343 342 345 343 343 344 346 345 347 347 347 349 352 352 352 353 352 354 355 357 358 358 358
346 347 347 347 347 348 348 348 349 351 351 352 353 350 351 352 353 354 355 356 354 359 359 360 360 359 358 360 359 359 358 359 360 361 359 357 356 356 357 356 356 360 355 354 354 354 356 357 355 359 352 349 348 349 356 347 348 347 339 334 333 333 332 336 336 342 343 344 342 343 344 345 346 347 351 350 347 350 352 352 352 355 357 358 359
344 345 346 346 347 347 348 348 349 350 351 355 353 351 354 351 353 355 357 355 356 355 355 355 357 358 358 357 358 358 358 358 359 361 360 357 356 356 357 357 357 358 357 356 355 355 356 357 357 358 354 351 349 348 351 353 346 349 347 341 336 334 332 334 334 340 338 342 343 342 346 346 344 347 348 347 347 347 346 347 352 354 356 357 357
343 345 346 347 347 347 348 348 349 350 350 353 352 352 352 349 349 349 348 348 349 350 350 351 353 354 355 357 358 357 357 357 357 359 362 358 357 356 357 358 358 359 360 358 355 355 356 357 358 358 356 354 353 348 346 352 350 358 346 348 346 339 338 338 335 335 341 344 342 340 342 342 343 345 348 347 345 346 350 349 351 352 353 354 355
343 345 346 347 347 347 348 348 349 350 351 352 351 353 349 349 350 349 350 348 348 350 354 355 355 356 357 355 356 356 356 357 357 358 360 362 357 357 358 359 359 358 364 358 356 357 359 359 359 357 357 361 353 348 345 345 347 349 351 350 349 352 342 341 337 336 334 340 339 339 339 337 339 341 341 342 344 344 346 349 350 349 351 353 353
343 344 345 346 346 347 347 348 349 351 351 352 351 352 348 348 349 349 350 348 349 350 352 354 356 356 355 355 355 355 355 356 356 356 358 361 359 357 359 360 359 359 362 361 359 357 357 357 361 360 357 361 355 352 346 346 347 347 354 350 347 350 344 343 341 337 336 332 336 339 338 338 338 339 342 341 342 343 344 348 348 348 351 352 355
343 343 345 346 346 347 348 348 349 351 351 351 351 351 351 349 349 349 349 350 350 351 353 356 355 357 353 353 353 354 355 355 355 356 357 358 363 360 358 358 359 359 365 362 360 359 358 358 357 359 357 358 354 351 349 348 346 348 348 349 345 343 342 344 346 344 341 333 335 335 339 341 339 341 339 340 341 344 346 347 350 352 357 357 357
342 344 345 346 346 346 347 347 347 349 351 351 351 350 350 351 348 348 348 348 350 349 351 352 353 354 352 351 352 352 353 354 355 356 356 358 360 362 359 358 358 358 363 362 360 360 359 358 358 357 357 357 357 354 354 350 350 352 348 347 345 346 344 344 342 342 339 337 334 334 336 336 335 341 341 342 343 343 342 343 344 345 349 354 356
342 343 344 345 345 345 346 346 347 348 351 351 350 349 349 349 348 348 348 347 347 347 347 348 351 352 351 351 352 352 353 353 355 356 356 357 358 361 361 358 359 361 363 362 361 360 359 359 358 358 360 357 356 357 359 356 354 353 349 349 347 345 343 341 342 342 340 339 337 335 335 338 335 336 344 344 352 348 343 344 344 344 352 353 357
Wind_Speed
1 7 4 7 7 8 10 9 8 7 9 9 9 9 10 10 10 10 10 10 9 9 9 9 9 8 8 9 9 9 9 10 11 11 11 11 11 11 12 12 12 13 20 17 11 11 14 14 15 15 15 13 13 12 12 14 14 14 14 14 13 17 14 12 13 12 13 13 12 12 12 13 13 14 14 14 14 14 14 14 11 8 7 10 13
5 5 4 5 8 10 9 9 7 5 8 10 9 9 9 9 10 10 10 10 9 8 8 8 7 8 8 9 9 9 10 10 10 10 11 11 11 11 11 12 12 13 21 15 11 12 14 15 14 12 14 13 13 12 13 14 14 13 13 13 14 18 14 10 11 12 13 13 12 10 13 14 14 14 14 14 14 15 14 14 14 8 7 12 13
6 6 6 6 9 9 9 8 6 7 10 10 9 8 8 9 9 10 10 9 8 8 7 7 7 7 8 8 9 9 9 10 10 10 9 10 11 11 12 12 12 16 17 15 14 13 14 13 14 13 12 12 13 13 14 14 14 14 14 14 13 17 13 11 12 13 13 12 13 13 13 14 15 14 13 13 14 14 14 14 13 11 9 13 12
8 4 5 8 10 9 10 10 9 9 9 9 8 8 8 9 9 10 10 9 8 7 6 6 6 6 7 8 9 9 9 9 10 10 9 9 10 11 11 11 12 16 15 13 14 15 12 11 13 11 11 13 14 15 14 14 14 14 14 14 13 13 13 11 13 14 13 13 13 10 5 5 10 13 13 14 14 15 14 14 13 13 13 13 13
7 5 5 4 4 7 10 10 9 9 9 8 8 8 8 9 9 9 9 9 7 6 5 5 6 5 6 7 8 9 8 8 9 9 9 9 10 10 10 11 13 23 8 9 12 17 11 8 13 12 7 11 13 14 14 14 14 14 13 16 13 12 13 14 14 14 14 14 13 8 5 6 4 13 14 14 14 14 13 13 13 13 13 14 13
6 5 4 4 4 5 8 8 9 8 8 8 8 8 7 8 8 8 8 7 6 5 5 5 6 5 5 6 7 8 8 7 8 8 9 9 10 9 10 11 19 17 9 9 11 15 12 11 11 11 9 10 13 13 14 14 13 13 15 17 13 12 13 14 13 14 14 13 11 5 5 6 5 5 14 13 13 13 13 13 13 12 13 13 13
7 4 4 4 4 4 6 7 8 8 8 8 8 7 7 7 7 7 7 6 6 5 5 5 6 6 5 6 7 8 8 7 7 7 8 8 9 9 9 14 20 14 10 8 10 12 13 14 12 11 10 10 12 12 13 14 13 14 14 14 13 12 14 14 14 14 13 8 4 5 4 5 5 4 12 12 12 12 12 12 12 11 12 12 12
5 4 4 4 4 4 5 3 8 8 8 8 7 7 6 6 6 6 5 6 6 5 5 4 5 6 5 6 7 9 7 7 6 7 8 8 9 9 10 14 15 16 10 9 9 10 13 13 11 14 11 13 12 11 13 13 14 15 15 12 13 14 15 14 13 14 12 6 5 5 4 4 5 5 9 11 12 12 12 12 11 11 11 12 11
5 4 4 4 3 5 3 2 8 8 8 8 6 6 6 6 6 5 5 5 4 5 5 4 5 6 5 7 7 8 7 6 7 7 8 9 10 10 11 12 16 13 10 9 10 11 13 10 11 12 12 13 12 11 12 12 13 14 14 14 14 15 15 14 12 11 7 4 5 5 5 4 4 3 9 11 11 11 11 10 10 11 11 11 11
5 4 4 3 2 4 3 6 9 9 8 7 6 6 5 6 6 5 5 5 5 6 5 5 5 5 6 7 10 6 6 6 7 7 8 9 10 12 13 14 16 14 9 11 9 10 13 11 10 11 11 12 12 12 11 11 14 14 14 14 14 14 14 13 12 9 5 4 5 5 5 5 3 3 9 11 11 11 11 11 9 9 9 11 11
5 4 3 3 2 4 6 9 9 8 8 6 6 5 5 5 5 5 5 5 5 4 4 5 6 6 6 8 8 7 7 7 7 7 9 9 10 14 13 13 15 14 13 12 10 10 13 11 11 10 11 12 12 11 11 9 13 14 14 14 14 14 14 12 10 4 5 6 6 5 6 8 4 4 9 10 10 11 11 11 10 10 10 10 11
6 4 3 2 5 5 8 8 8 8 7 7 6 6 5 5 5 5 5 5 5 5 5 5 6 6 7 8 7 7 7 7 7 7 8 9 11 13 12 13 14 12 12 13 13 10 11 13 12 10 11 11 12 11 11 9 12 14 14 14 13 13 13 12 6 5 5 6 6 5 5 4 3 6 10 10 10 10 11 10 10 9 9 10 10
6 5 3 2 2 7 8 8 8 7 6 5 6 5 6 5 5 5 5 5 6 6 6 6 5 7 7 7 7 6 7 7 7 7 7 9 11 12 12 12 12 11 10 14 13 13 11 13 12 11 11 12 12 13 12 10 10 13 14 13 13 13 12 11 5 5 5 5 4 4 4 4 4 8 9 9 9 10 10 9 8 9 9 9 9
7 5 4 3 0 7 8 9 8 7 6 5 5 5 6 6 6 6 6 6 6 6 6 6 7 9 9 7 5 6 6 6 6 6 7 8 9 13 13 13 15 9 10 13 16 14 12 12 12 10 11 13 13 12 11 11 11 13 13 13 13 12 12 9 7 5 5 5 5 5 4 4 4 6 8 8 8 9 8 8 8 8 9 9 9
7 6 5 3 1 3 9 8 7 7 6 5 5 5 6 6 7 7 7 6 6 7 7 7 9 10 11 7 7 9 8 7 7 6 7 7 8 9 12 13 15 12 8 12 14 15 14 12 9 9 11 14 13 11 11 10 11 12 12 12 12 12 12 5 4 4 4 4 4 4 4 3 7 7 8 8 8 8 8 7 8 8 8 9 9
7 6 5 3 3 3 3 7 7 7 6 6 5 6 7 7 7 7 7 7 7 8 8 8 10 13 11 7 8 9 8 8 7 6 8 8 8 8 12 13 12 13 11 12 13 17 17 13 10 8 9 12 12 12 10 11 12 12 12 12 12 12 11 7 4 4 4 4 4 4 3 4 8 7 8 8 7 7 7 7 7 7 8 8 9
7 5 5 5 5 3 4 4 3 6 6 6 6 7 7 7 7 7 8 8 11 13 9 9 11 13 11 9 9 8 8 7 7 7 8 8 8 7 11 14 13 13 12 12 12 19 19 18 17 12 9 9 10 12 12 12 12 11 11 12 11 12 11 8 4 3 3 4 4 3 3 3 6 7 7 6 6 6 6 6 7 7 7 8 8
6 5 5 5 4 4 4 4 3 3 2 4 6 8 7 7 7 8 9 12 14 11 9 9 12 13 12 11 7 8 8 6 6 9 8 8 8 9 9 11 13 13 11 6 8 16 17 18 19 21 15 12 11 11 11 11 11 10 11 11 11 11 10 8 4 3 4 4 3 2 2 6 6 5 6 5 4 5 6 6 7 7 7 7 7
5 5 5 5 5 5 5 4 3 4 4 5 5 4 9 8 7 9 12 13 12 10 8 9 12 13 14 12 8 8 9 7 7 9 9 8 10 9 10 11 13 13 11 8 8 14 14 14 15 16 15 13 11 10 10 10 10 11 10 10 11 11 10 5 4 3 3 2 2 2 2 4 4 4 3 4 4 4 5 5 6 6 6 7 7
4 4 5 5 5 5 4 4 4 5 5 6 6 6 7 8 8 10 12 12 11 10 10 9 12 13 14 14 11 7 7 7 10 5 7 9 10 9 11 11 13 14 14 16 14 11 13 14 14 14 13 11 10 10 9 9 9 10 10 10 10 10 5 3 4 3 2 3 2 2 2 3 3 3 2 2 3 3 4 5 4 5 6 6 7
4 4 4 4 5 5 4 4 4 5 6 6 5 5 5 8 6 10 13 12 11 11 11 12 12 12 10 13 11 6 4 4 4 1 7 6 10 11 9 11 13 11 12 12 13 12 12 13 13 12 12 12 11 11 11 6 10 9 9 9 10 5 3 3 3 2 2 2 2 2 3 2 1 1 1 1 2 3 3 3 4 4 5 6 6
5 4 3 5 5 4 4 4 4 5 5 5 4 4 4 6 6 6 7 8 10 10 8 6 8 6 10 10 7 4 3 3 3 2 4 6 8 13 12 11 11 7 7 12 12 12 11 12 11 11 12 11 11 6 5 7 7 8 9 11 5 3 3 3 2 2 2 2 2 1 1 1 1 1 0 0 1 2 2 3 4 4 5 5 6
6 4 3 5 4 4 4 4 4 4 6 5 4 5 5 5 5 6 6 9 8 7 5 5 4 6 6 6 4 2 4 3 3 4 4 9 9 12 13 13 8 4 9 12 11 12 11 10 12 11 11 11 6 5 5 4 5 8 8 5 3 3 3 3 2 1 1 1 1 1 1 1 1 2 2 2 1 2 3 3 4 5 4 5 5
5 4 4 4 5 4 4 3 4 4 5 5 4 4 4 4 5 5 5 5 5 5 5 5 5 6 6 3 2 4 5 5 10 11 9 5 7 10 13 11 11 6 10 7 9 10 11 12 12 11 7 4 4 4 4 4 3 3 3 3 3 3 3 2 1 1 1 0 1 2 2 2 2 3 2 2 3 3 3 3 4 5 5 5 5
4 3 3 4 5 5 4 3 4 4 5 5 5 4 4 4 4 4 5 5 5 5 5 5 5 6 5 3 4 5 4 5 5 5 4 5 6 6 5 1 0 4 7 6 5 6 6 6 5 6 4 4 4 4 4 4 3 2 3 3 3 3 2 2 1 1 1 1 2 4 4 3 3 3 4 4 3 4 4 5 5 5 6 6 6
4 4 4 4 5 5 4 4 4 4 5 5 4 5 5 4 4 4 5 4 5 5 4 5 5 5 5 4 5 6 4 4 4 5 6 4 5 4 2 2 4 5 4 5 5 5 5 5 5 5 3 3 3 3 3 3 3 2 2 2 2 2 2 2 1 1 1 1 2 5 4 4 4 4 5 5 4 5 5 5 6 7 7 7 7
5 4 4 4 5 5 4 4 4 4 5 5 4 5 4 3 4 4 4 4 4 5 5 5 5 5 5 4 5 5 5 5 5 5 5 4 4 3 3 4 5 5 4 5 5 5 5 4 4 3 3 4 3 3 3 3 3 3 3 2 2 2 2 2 1 1 2 2 3 6 5 5 5 5 5 6 6 6 6 7 7 8 8 9 9
4 5 4 4 5 5 4 4 4 4 4 4 5 4 4 4 4 5 4 5 4 4 4 4 4 5 5 4 4 4 4 5 5 5 4 4 4 3 3 4 4 4 3 4 5 4 4 4 4 4 4 4 4 4 3 2 2 2 3 2 2 2 2 2 1 2 2 2 3 6 6 6 6 6 6 7 7 7 7 7 9 9 9 9 10
6 5 5 5 5 5 6 5 4 5 4 4 4 4 4 3 4 4 4 4 4 4 4 4 4 4 4 4 4 5 4 4 4 4 4 4 4 4 4 4 4 4 4 4 4 4 4 4 3 3 3 3 3 4 3 2 1 2 3 3 2 2 2 2 2 2 2 3 3 5 7 7 7 7 7 7 8 8 8 8 8 9 10 10 10
6 6 6 5 5 6 6 6 5 5 5 5 4 4 3 4 3 4 3 4 3 3 4 4 3 4 3 4 4 4 4 4 4 4 4 4 4 4 4 4 4 4 4 4 3 3 3 4 3 3 3 3 3 3 2 3 1 1 2 3 2 2 2 2 2 2 3 3 4 5 8 9 8 8 8 8 9 9 10 10 10 10 10 10 10
6 6 6 5 5 6 6 5 5 5 4 5 4 4 4 3 3 3 4 4 3 3 3 4 3 3 3 4 4 4 4 4 4 4 3 4 4 4 4 4 4 4 3 3 3 3 3 3 3 3 3 3 3 2 2 3 2 1 2 3 2 2 2 2 2 2 3 3 3 4 5 9 10 9 9 9 9 10 11 11 11 11 11 11 12
7 7 5 5 6 7 6 6 5 4 4 5 5 4 4 4 3 3 4 4 4 3 3 3 3 3 3 4 4 4 4 4 4 3 3 3 3 3 4 4 4 3 3 3 3 3 3 3 3 3 3 3 3 2 1 2 1 1 2 2 2 2 2 2 2 3 3 3 3 3 3 5 8 10 10 10 10 10 11 11 11 12 12 12 13
5 7 7 7 7 7 7 6 6 4 4 5 4 4 4 3 3 2 3 3 3 4 3 3 3 3 3 4 3 3 3 3 3 3 3 3 3 3 3 3 2 2 2 2 3 3 2 3 3 2 2 1 2 3 1 1 1 1 1 2 2 2 2 2 2 3 3 3 3 3 3 3 4 7 9 10 11 11 11 11 11 12 12 12 13
6 5 7 8 6 5 5 5 6 6 5 4 4 4 4 4 3 2 2 3 3 4 3 3 2 3 3 4 3 3 3 3 3 3 3 3 3 3 3 3 2 3 2 2 2 2 3 4 4 3 3 2 2 2 1 2 1 0 2 2 2 2 2 3 3 3 3 3 3 3 3 3 3 3 5 8 10 11 11 11 11 12 12 12 12
6 7 9 8 7 6 6 5 6 6 5 4 5 4 4 4 4 3 3 3 3 4 3 3 3 3 3 3 3 3 3 3 3 4 3 3 3 3 3 3 2 3 3 3 3 3 3 3 3 4 2 2 2 2 1 0 2 3 3 2 3 2 2 3 3 3 3 3 2 3 3 3 3 3 3 4 6 9 10 10 11 11 12 12 12
9 9 8 7 8 7 7 6 7 7 5 5 4 4 4 4 4 3 3 3 3 3 3 3 2 3 3 3 3 3 4 4 3 4 4 3 3 3 2 3 3 3 3 3 3 4 2 3 3 3 5 4 3 3 2 1 2 2 2 3 3 3 3 3 3 3 3 3 3 3 3 3 3 3 4 4 4 6 9 9 10 10 11 12 12
9 9 9 8 7 8 7 7 8 7 6 5 5 4 4 4 4 4 4 4 3 3 3 2 2 2 2 3 3 3 4 4 4 4 4 3 3 3 3 3 3 3 3 3 4 3 3 4 4 3 3 3 2 3 2 2 2 2 1 2 2 2 3 3 3 3 2 4 4 4 4 4 4 5 4 4 4 4 5 9 9 10 10 11 11
9 10 9 9 8 8 7 7 7 6 6 6 5 4 4 4 4 4 4 4 3 3 3 3 3 3 2 2 3 3 3 4 4 4 4 3 3 4 3 3 3 2 3 4 3 2 3 4 4 3 2 2 3 4 4 3 1 1 1 0 1 2 3 3 3 3 3 5 4 5 4 4 4 4 4 4 4 4 4 6 8 10 10 10 10
8 9 9 7 6 6 6 6 7 6 6 5 4 4 4 3 3 4 4 4 3 3 3 3 3 3 3 3 3 3 3 4 4 4 4 3 3 3 3 3 2 3 3 3 4 4 4 4 4 5 4 1 2 2 2 2 3 2 2 1 1 3 3 3 3 3 4 5 5 5 3 4 4 4 4 4 4 4 4 4 4 4 5 9 10
8 8 8 8 7 6 6 5 7 7 6 5 5 4 3 4 5 4 4 3 3 3 2 3 3 3 3 3 4 3 3 3 4 4 4 4 4 3 3 3 3 3 3 3 3 4 4 5 5 4 5 3 2 3 2 2 3 4 3 3 1 2 3 3 3 4 4 4 5 3 5 4 3 4 5 4 3 4 4 4 4 4 5 7 9
8 9 9 8 8 8 7 7 6 7 7 6 5 5 4 4 2 4 4 4 4 4 4 3 3 3 4 4 4 4 4 4 4 4 4 4 3 3 3 2 2 2 2 2 1 3 3 2 2 1 4 5 4 3 3 2 4 3 4 4 5 4 4 3 4 4 4 4 3 4 4 3 4 4 4 3 4 4 4 4 4 4 4 4 5
8 9 10 10 8 8 8 7 6 7 7 7 6 6 4 4 4 4 3 3 4 4 4 4 3 4 4 4 4 4 4 4 4 4 4 5 4 3 3 3 2 2 2 1 2 2 3 4 3 4 2 3 3 3 3 2 4 2 3 5 5 5 2 2 4 5 4 4 4 4 3 4 4 4 3 3 4 3 4 3 3 4 4 4 4
10 11 10 9 9 8 7 6 6 7 6 7 6 6 4 4 4 3 4 3 1 2 2 3 4 4 3 3 4 4 4 4 4 3 4 3 4 4 3 3 2 2 1 2 3 3 3 4 4 3 4 2 1 1 4 3 1 1 1 2 3 5 5 5 3 4 4 3 3 4 3 4 5 4 3 3 4 3 3 3 3 4 4 4 4
8 8 9 10 8 8 7 7 7 6 6 6 6 5 5 4 3 4 4 3 3 3 3 3 4 4 3 3 2 3 4 4 3 3 3 3 4 4 3 2 3 2 2 1 2 3 3 3 3 2 1 4 5 3 2 2 2 1 4 2 2 1 4 5 6 6 2 4 2 3 2 4 4 3 2 4 4 3 3 2 4 3 3 3 3
10 10 10 10 8 10 9 9 8 7 6 6 6 6 6 5 4 5 4 5 4 3 3 3 4 4 4 3 4 3 3 3 3 3 3 4 3 3 3 2 3 2 2 1 0 1 1 1 1 2 3 1 4 3 2 2 2 1 2 2 3 3 1 4 5 5 4 4 3 3 3 4 4 3 3 4 3 3 3 4 4 3 3 3 3
10 10 11 11 10 9 9 8 7 7 7 7 7 7 6 6 6 5 5 3 4 6 7 7 6 6 6 4 3 3 3 3 3 3 3 3 3 3 2 2 2 2 2 2 1 1 1 2 0 0 0 1 1 3 4 2 3 1 1 1 2 0 3 3 2 4 6 1 4 4 3 3 2 4 3 4 4 4 2 4 4 4 3 2 2
11 9 9 9 9 9 9 9 9 7 7 7 8 7 6 6 8 7 6 6 6 5 4 4 7 6 4 4 4 3 3 3 3 2 2 3 3 3 3 2 2 2 2 2 1 1 0 0 1 1 1 1 1 3 4 4 3 2 2 2 1 1 2 1 4 2 5 6 4 4 3 3 3 2 2 3 3 4 4 2 4 4 4 3 3
11 9 9 8 9 9 9 9 8 8 7 8 8 8 8 7 7 6 6 6 6 6 6 5 4 4 4 4 3 3 3 3 3 3 2 3 2 2 3 2 2 2 2 2 2 1 1 0 1 1 0 1 2 1 2 2 3 3 2 3 3 2 2 1 3 0 1 3 7 5 2 4 3 1 2 3 3 4 5 4 3 4 4 3 3
10 11 11 10 9 9 9 8 8 8 8 9 9 8 8 8 8 7 6 5 5 3 3 3 5 5 5 3 4 3 3 3 3 4 4 3 4 3 3 3 2 2 2 2 1 1 1 1 1 1 1 1 2 2 2 2 1 3 4 4 3 4 2 2 1 2 1 2 4 3 6 5 3 2 4 3 3 3 3 4 4 4 3 4 3
11 11 9 8 8 8 9 9 9 8 8 9 9 9 8 7 7 7 7 6 4 3 4 4 4 5 6 5 4 4 4 4 4 4 4 4 4 3 3 3 3 2 2 2 2 2 2 2 2 3 2 3 2 2 2 2 1 0 1 1 4 3 3 2 2 3 2 1 1 5 4 4 5 5 3 6 5 4 3 3 4 3 2 3 3
8 9 9 9 8 9 10 10 10 8 8 10 9 10 8 8 8 8 8 7 6 5 5 4 4 4 5 5 6 4 4 4 4 5 4 4 4 3 3 3 2 2 2 2 3 3 2 3 2 2 3 4 3 2 2 3 2 2 1 2 3 3 2 2 4 2 1 2 2 3 3 0 3 5 5 6 4 3 2 2 2 2 2 3 3
Wind_Direction
215 104 177 132 124 116 112 106 100 93 104 106 99 97 97 97 100 100 98 97 98 98 100 103 110 110 109 106 107 111 111 107 107 107 108 110 112 113 111 108 104 98 97 98 116 107 98 95 96 98 98 101 104 103 109 108 103 99 96 93 94 92 88 83 88 93 91 91 87 99 93 94 90 83 83 81 81 79 76 74 67 61 57 74 71
152 120 96 124 125 118 111 103 112 125 119 106 103 98 96 99 100 102 101 100 100 102 104 109 118 119 116 111 109 110 109 104 102 106 112 114 115 113 111 108 104 100 94 109 109 95 100 97 100 100 105 111 113 115 110 108 103 100 98 95 93 93 86 85 90 89 81 79 82 76 90 86 83 83 86 86 83 81 80 77 71 64 69 71 71
118 117 134 145 139 128 126 128 145 150 115 106 102 102 103 107 110 109 104 103 106 109 115 123 124 125 119 115 112 109 106 108 106 105 112 121 117 116 113 106 104 99 97 98 98 98 92 94 105 110 110 112 111 109 107 105 102 100 99 96 96 95 109 105 100 91 87 88 81 72 66 81 88 87 83 86 84 83 82 79 77 72 75 73 69
118 124 135 148 144 144 145 157 157 118 108 105 107 109 109 107 107 109 109 114 118 126 130 126 119 111 112 111 109 105 107 109 108 111 116 119 121 119 116 110 105 90 80 100 106 100 89 97 98 97 105 107 108 108 106 103 101 99 97 94 83 92 98 98 92 91 85 81 72 58 43 22 71 85 89 83 81 78 76 75 75 75 75 72 70
116 128 132 119 133 135 134 130 116 111 109 113 113 113 112 107 109 110 116 122 129 130 126 116 111 112 118 113 109 107 107 109 110 112 117 126 122 120 115 112 102 85 90 85 93 100 112 112 106 107 88 96 99 105 103 100 100 99 98 92 91 88 91 92 93 88 87 78 70 59 45 45 47 86 86 84 81 81 81 80 78 75 72 69 65
126 125 124 115 101 111 115 122 117 117 116 119 117 113 110 110 112 118 119 121 124 123 117 111 115 119 121 117 108 111 112 109 105 111 115 120 121 118 114 109 84 81 98 104 99 107 123 114 109 114 108 102 102 105 105 103 101 101 92 94 103 97 93 89 81 80 76 67 60 51 52 46 31 69 85 84 81 79 78 75 71 70 68 67 63
123 125 120 108 105 95 100 124 124 123 123 118 117 118 116 114 111 108 112 119 122 126 126 130 128 123 119 116 111 108 112 112 113 115 115 121 118 115 114 94 95 116 104 90 99 112 119 113 120 107 109 104 101 101 106 106 103 96 95 93 90 100 95 92 86 77 68 59 54 55 58 61 48 11 81 84 84 82 80 79 77 73 71 69 67
109 111 113 105 100 85 93 93 128 123 117 116 123 125 121 109 105 107 113 124 131 125 126 126 116 111 110 112 105 106 111 118 122 120 120 119 117 114 106 99 108 110 117 113 113 118 108 112 120 123 123 115 104 106 99 103 105 104 100 93 94 85 78 75 79 75 63 54 53 57 57 51 48 38 82 84 84 82 80 77 74 70 68 67 68
111 112 105 98 94 101 97 127 126 119 119 122 125 125 117 114 120 125 127 119 121 123 128 119 111 111 116 104 101 107 108 115 116 114 114 116 112 107 102 100 103 100 113 121 120 117 114 121 122 121 123 115 111 107 98 101 102 99 100 103 92 85 87 88 80 63 55 49 57 64 56 47 66 80 84 84 83 80 76 69 66 68 68 68 66
115 106 106 97 77 117 109 129 127 125 127 127 130 126 123 117 117 120 119 116 118 112 114 109 113 115 116 109 104 105 116 120 120 114 114 114 115 102 98 100 102 120 131 116 112 113 113 118 114 116 121 115 112 110 99 100 103 100 97 93 88 83 81 77 69 60 47 44 45 57 73 69 37 41 85 88 87 82 80 81 78 74 70 70 67
119 118 110 108 120 123 134 126 126 126 127 129 125 116 108 110 116 109 100 105 106 108 115 107 96 97 103 106 108 125 124 122 117 119 119 119 111 103 111 114 111 123 130 122 122 115 117 116 117 117 114 116 112 102 91 94 104 102 98 94 89 86 82 76 64 51 46 50 53 47 71 56 48 66 90 87 85 83 80 76 72 69 69 67 65
118 117 113 125 136 132 128 127 131 127 130 127 121 115 110 107 101 99 101 102 110 109 106 103 100 101 102 95 105 108 125 122 119 119 112 111 108 113 122 118 120 123 126 128 129 125 117 120 119 123 127 117 107 100 94 95 106 103 99 96 92 89 84 75 64 57 52 48 52 50 48 49 38 85 86 85 82 79 74 69 66 67 68 66 66
122 114 112 107 74 138 129 130 119 116 114 116 114 117 108 102 99 99 101 99 91 98 97 97 99 95 85 90 101 130 118 117 115 108 107 108 109 110 109 118 116 125 131 125 131 127 126 118 121 127 124 120 112 107 112 113 106 102 101 99 95 94 89 74 57 59 54 50 45 42 43 45 56 79 83 83 81 76 72 70 69 66 64 61 59
122 118 111 95 184 140 133 125 123 121 118 111 115 104 101 99 101 97 94 95 103 94 87 90 87 81 76 79 86 88 90 103 112 115 106 103 110 120 125 119 114 122 132 127 124 129 123 118 124 124 124 116 110 106 107 108 107 101 101 100 101 96 86 74 65 54 55 50 55 49 40 42 60 75 81 81 78 74 73 74 70 68 65 63 62
122 117 105 100 84 125 128 122 120 118 110 110 107 109 103 102 99 95 91 93 87 82 82 84 87 86 84 81 80 79 76 78 74 100 102 93 95 113 118 113 117 128 132 123 121 124 124 113 108 121 115 112 113 115 113 115 107 104 103 102 102 97 87 67 62 50 50 52 44 48 42 56 87 79 77 77 76 73 70 64 64 63 59 57 58
113 112 107 87 86 80 85 121 120 122 125 123 124 116 103 95 95 96 97 93 85 82 80 71 73 80 84 84 84 84 79 81 83 93 101 100 102 110 113 108 112 129 132 122 132 132 118 122 124 120 118 119 123 123 126 118 106 105 103 104 105 102 95 85 69 60 56 53 46 41 39 66 75 76 76 74 70 70 66 65 63 60 57 54 52
114 108 102 97 92 85 70 81 119 124 125 129 122 111 103 98 93 95 89 81 78 72 66 67 72 76 78 77 77 71 80 90 97 97 100 100 111 111 109 117 123 123 124 130 149 127 129 135 144 131 124 130 124 116 112 101 103 105 107 110 109 106 100 88 72 60 59 58 55 42 53 66 72 76 77 74 70 67 66 63 59 56 54 51 47
111 105 101 101 90 89 82 74 76 75 72 106 106 101 98 94 90 80 78 74 75 75 68 63 72 78 76 75 76 90 83 73 91 94 100 124 118 111 111 116 116 116 111 129 142 121 142 147 140 138 139 125 114 101 95 101 104 106 109 112 112 109 104 88 68 59 60 63 43 42 24 75 73 71 76 74 71 61 55 52 49 47 46 47 45
104 96 93 92 88 83 78 76 73 75 68 52 47 86 94 90 94 95 84 81 82 80 75 70 76 82 84 85 83 78 85 107 99 110 125 119 113 109 114 113 115 116 123 152 153 150 140 120 106 105 107 101 98 97 103 105 105 108 109 113 113 110 97 78 66 63 61 59 43 42 55 67 72 77 77 82 65 63 58 52 49 43 41 43 43
95 90 86 77 92 85 81 74 64 62 59 59 68 55 86 93 98 95 95 90 95 91 83 74 73 74 80 90 87 80 95 99 94 86 112 108 108 111 115 120 128 122 164 164 156 126 105 102 96 91 87 87 91 98 103 102 103 99 105 110 111 98 83 79 74 70 60 75 66 13 73 89 97 90 88 86 82 61 53 48 44 40 35 33 36
95 80 82 85 92 95 80 76 65 68 68 71 74 79 90 77 59 86 89 96 97 88 79 71 73 78 80 83 78 47 64 75 94 85 113 113 114 110 106 113 113 140 170 139 103 91 96 96 90 86 83 75 76 93 93 113 100 102 106 111 106 94 92 92 91 75 60 43 39 353 15 82 102 137 118 68 55 55 40 31 32 26 29 25 28
124 111 84 96 108 101 87 82 71 72 80 79 79 70 69 73 56 57 76 80 80 71 67 70 71 62 77 82 67 47 36 51 59 120 86 99 102 110 111 101 101 153 138 105 102 93 85 87 85 83 77 74 63 55 80 79 82 101 105 104 94 98 100 104 99 94 70 37 33 49 59 68 339 290 248 184 333 23 29 24 16 16 11 16 17
139 131 119 120 119 106 89 86 80 85 87 85 80 81 79 74 63 62 70 78 81 82 72 66 46 78 76 61 110 152 95 80 100 113 98 110 107 106 109 104 101 202 124 101 100 97 96 91 82 75 73 62 50 47 49 40 40 70 90 90 94 94 102 97 104 101 81 75 32 297 170 231 244 271 289 330 319 342 15 8 349 353 356 358 2
141 142 138 134 136 123 99 100 100 89 92 86 82 86 79 74 74 67 70 80 79 88 73 68 66 66 54 66 86 103 95 101 110 97 83 56 81 91 91 108 151 152 66 56 64 77 67 67 66 61 54 49 51 51 44 23 52 72 88 100 102 108 111 123 137 135 149 269 201 264 232 251 284 284 282 291 318 331 343 348 332 329 333 340 342
141 127 127 141 147 140 126 106 96 97 100 98 103 96 83 76 75 78 79 79 85 74 72 64 61 81 113 104 72 62 57 58 62 81 72 83 82 79 75 76 32 32 55 56 42 42 50 48 39 47 46 43 53 45 41 39 20 67 108 113 115 114 122 133 154 169 207 293 261 253 238 246 263 289 294 304 314 319 323 328 325 320 326 327 328
140 139 150 136 152 145 129 127 107 97 95 100 112 111 97 88 84 89 87 80 91 84 81 74 64 61 70 71 71 78 76 81 70 77 81 76 76 81 131 123 39 42 45 59 46 47 45 44 44 43 26 36 49 45 50 48 52 76 92 106 117 128 136 156 169 194 238 265 280 263 245 252 269 284 298 301 305 313 316 320 317 318 318 321 322
158 152 137 139 148 138 133 129 119 104 98 102 94 98 104 101 96 102 88 78 80 88 80 78 70 70 73 74 75 83 75 59 60 56 65 58 62 66 55 47 59 48 38 63 53 47 46 42 39 36 18 22 17 18 40 44 58 105 100 106 124 137 154 167 188 208 245 265 274 263 254 264 276 281 292 300 301 304 311 311 306 315 315 315 318
141 150 143 144 149 153 139 137 126 120 109 100 100 108 113 112 117 99 82 99 87 83 84 83 77 73 80 82 88 85 87 79 68 66 69 67 63 60 54 44 45 46 37 51 53 36 32 36 33 14 14 9 354 356 0 46 43 119 134 132 139 146 164 181 194 230 253 264 257 272 260 270 277 282 290 298 303 306 307 304 301 306 309 310 314
150 154 145 148 158 152 149 144 143 127 118 111 112 109 107 90 88 93 104 104 75 84 98 86 76 72 73 80 89 84 80 87 80 77 79 67 60 50 52 44 40 31 28 40 46 31 22 19 13 358 2 345 337 322 325 343 96 139 153 155 158 167 181 190 212 236 252 254 265 275 271 268 278 282 286 293 302 305 303 304 300 302 307 310 312
160 149 147 154 157 149 154 157 150 144 135 125 121 124 114 110 101 109 135 95 88 91 90 86 68 79 72 80 87 97 93 90 79 57 64 50 44 37 39 30 34 21 25 27 19 29 12 351 345 346 334 322 309 297 301 302 334 162 169 170 177 192 190 205 220 239 251 263 264 273 284 280 279 284 288 295 300 302 305 308 307 307 308 311 312
149 154 151 157 158 155 156 156 147 158 140 134 138 126 128 116 124 108 84 107 106 96 87 88 70 73 93 85 88 97 98 89 85 70 61 53 43 41 32 25 20 19 20 11 360 7 348 305 297 301 298 294 277 280 272 281 272 197 193 187 189 179 202 212 232 247 253 257 265 272 281 293 293 288 289 293 295 298 301 304 306 308 309 312 314
160 162 156 153 157 161 156 156 155 158 159 149 154 141 139 133 127 111 102 111 118 104 101 96 87 81 102 92 86 90 96 87 93 73 70 56 41 44 30 26 6 357 13 338 323 316 296 296 285 269 261 257 284 291 239 214 231 206 182 200 186 195 204 217 240 243 256 260 266 271 279 287 296 300 298 295 294 295 297 298 301 303 306 307 309
169 159 152 157 163 160 155 159 155 160 161 163 153 145 132 131 127 140 113 119 121 119 120 116 105 97 99 103 90 95 88 107 84 91 81 75 76 54 40 27 352 331 321 306 296 309 322 320 320 321 324 332 310 312 124 92 63 283 195 204 195 210 205 217 238 248 250 259 257 262 265 280 290 299 299 300 299 297 296 296 298 299 301 302 304
156 151 150 162 162 158 150 151 160 164 175 162 148 150 145 139 138 137 132 124 127 133 131 122 117 102 94 94 105 110 101 96 110 83 93 92 73 70 61 52 41 49 34 15 33 25 27 20 353 2 355 351 330 325 14 353 0 5 231 219 206 217 206 230 233 244 256 261 265 264 266 267 276 286 291 292 292 293 294 295 295 296 298 299 301
147 153 166 162 163 156 153 158 163 165 175 169 173 163 154 137 135 146 143 143 139 134 127 125 109 107 102 97 115 120 112 113 112 117 104 103 94 77 60 46 57 53 42 29 51 33 42 30 12 5 343 28 10 43 73 199 271 247 241 223 224 207 219 235 238 248 249 260 268 263 266 264 266 267 279 283 286 284 286 288 290 293 295 296 297
161 163 159 159 160 158 156 154 160 165 173 173 165 167 160 146 146 158 137 153 139 130 124 132 111 96 99 104 113 121 116 116 112 118 105 100 104 92 50 47 50 60 45 33 38 26 8 28 24 20 15 10 18 20 359 254 193 223 220 218 224 218 227 239 246 251 255 269 261 266 260 264 260 264 266 268 274 282 283 285 291 292 293 294 294
161 159 160 162 158 161 159 153 164 171 168 164 152 157 152 151 154 151 152 146 148 139 134 116 106 98 91 109 119 121 117 115 114 107 114 110 103 88 57 52 40 62 49 41 45 29 16 10 14 23 37 358 25 30 22 5 328 278 214 218 241 247 243 242 252 256 268 253 261 263 266 260 263 264 263 263 267 275 279 285 289 294 294 294 293
163 164 164 166 165 162 161 157 160 167 163 164 161 159 163 149 153 145 154 147 148 143 136 126 134 135 127 128 134 115 121 116 113 112 103 107 93 92 58 42 47 47 64 51 39 30 43 27 9 346 356 0 14 26 355 346 349 149 96 109 270 239 249 249 249 263 245 257 256 258 258 266 266 262 262 262 267 268 277 285 291 296 294 294 295
162 165 164 163 157 159 153 157 155 163 158 155 146 142 132 124 124 137 137 136 125 135 136 135 146 145 153 142 132 124 123 123 122 124 117 109 97 87 71 48 52 48 51 49 31 16 32 32 30 352 357 318 6 14 352 332 2 12 86 29 179 228 235 224 226 235 236 244 255 256 247 250 253 255 256 256 260 264 272 279 288 291 292 291 293
159 162 162 161 162 158 150 150 156 157 145 140 138 135 134 155 146 120 126 137 139 143 152 160 145 150 161 149 136 132 131 129 134 132 125 120 113 104 92 59 50 49 41 41 18 28 28 17 3 6 357 350 81 49 10 35 37 45 1 344 269 226 239 219 218 224 231 238 240 249 258 259 251 261 257 258 258 265 269 277 280 282 290 294 297
158 161 163 168 171 170 158 166 162 152 149 149 154 155 156 153 127 171 166 167 160 156 164 156 165 167 160 145 138 136 136 132 135 137 136 127 116 122 104 87 84 72 61 66 296 34 63 60 334 330 19 5 358 28 29 45 51 353 351 343 322 313 289 246 238 235 232 232 226 237 242 258 255 254 260 260 261 265 265 269 273 277 284 295 306
171 167 171 174 175 171 170 168 155 159 159 162 161 163 167 179 156 175 156 151 156 166 161 172 171 169 158 152 143 141 143 143 137 142 134 133 133 133 129 132 120 87 91 24 6 26 43 42 6 7 46 25 356 356 326 23 22 46 345 329 334 323 314 305 266 254 238 229 222 227 235 246 260 259 267 259 261 259 264 266 270 279 283 294 299
171 175 175 170 172 174 174 164 168 163 165 163 158 163 164 164 155 163 162 144 193 148 134 146 161 163 160 158 151 139 144 138 138 144 140 144 146 144 152 146 122 125 92 19 22 20 37 50 36 37 345 19 357 306 1 39 84 166 188 30 357 359 330 347 325 290 287 266 226 240 239 246 256 263 261 271 273 274 271 263 271 277 287 290 300
172 178 174 174 173 177 174 167 173 169 165 168 161 157 153 147 119 136 133 125 157 127 105 109 142 145 165 161 157 154 147 143 147 140 130 144 153 158 154 157 129 133 122 43 349 2 10 40 46 35 41 4 4 337 26 21 107 95 356 3 286 52 353 327 333 306 304 281 266 255 247 257 276 285 284 275 283 288 280 271 271 275 284 291 301
179 182 180 177 177 179 178 171 171 175 170 166 156 143 126 106 96 85 86 72 65 87 123 164 169 182 172 182 194 167 148 151 152 147 145 153 150 150 159 155 134 143 129 131 171 57 38 38 76 61 40 74 1 341 311 23 4 84 132 46 2 18 226 270 329 285 349 1 353 322 269 266 275 288 281 281 293 280 294 293 283 283 282 292 301
184 189 185 181 175 176 173 169 167 168 170 168 151 148 153 147 134 137 145 143 158 168 186 195 198 200 205 191 178 177 164 150 154 150 150 138 161 168 159 151 154 157 164 158 122 94 65 50 162 171 158 256 115 26 349 332 13 15 120 120 159 339 288 293 37 325 323 254 299 300 299 305 287 284 280 281 292 292 276 283 301 292 295 308 315
191 185 184 183 177 171 171 170 169 169 167 162 157 155 152 159 163 169 172 177 179 207 198 191 190 200 188 186 191 184 180 164 168 163 152 163 156 179 183 178 171 177 185 140 172 213 152 122 114 155 232 147 106 45 4 321 338 30 18 26 303 291 174 27 354 281 350 325 340 338 339 335 301 282 299 299 297 294 295 291 300 307 316 337 328
180 176 183 182 176 174 170 173 170 167 168 160 165 164 162 166 168 175 175 184 189 195 191 184 178 182 182 194 178 195 178 185 174 177 163 176 177 191 191 181 169 192 200 203 211 186 126 56 289 125 113 200 163 109 44 9 60 334 352 359 4 44 40 86 162 35 237 309 325 331 259 318 327 297 255 275 279 283 300 307 297 303 319 325 318
172 179 184 184 177 171 170 167 170 165 166 167 168 171 165 169 172 171 181 200 198 184 155 155 169 176 181 174 183 188 192 198 194 182 180 179 202 192 191 198 190 200 212 202 184 175 208 230 247 227 193 174 194 134 104 92 27 12 354 358 9 36 29 43 54 113 130 359 287 332 322 326 336 31 7 304 282 273 273 291 291 298 327 319 319
180 180 180 171 168 166 169 170 173 167 166 171 171 170 167 165 167 175 181 190 182 138 151 166 160 173 186 179 180 183 198 205 212 198 183 185 192 180 184 205 208 203 231 207 184 186 216 225 229 231 198 175 182 169 117 146 172 354 62 76 32 355 24 354 10 27 58 90 275 308 322 344 340 308 336 352 325 304 303 299 298 305 335 306 307
171 171 173 174 169 172 173 175 177 168 167 170 171 172 167 170 176 177 184 184 181 166 160 179 160 178 196 193 189 187 180 200 201 208 192 180 183 188 192 202 197 209 233 199 213 223 225 224 216 201 202 183 173 187 109 99 123 115 88 62 81 73 69 23 321 336 356 288 332 310 314 204 264 320 320 328 315 322 312 292 300 341 337 308 297